Location: Unspecified
(0.0000°N, 0.0000°E)
Time: 09:02:53
(UTC+02:00)

Cosmos 2228 - Visible Passes

Search period start: 03 September 2014 00:00
Search period end: 13 September 2014 00:00
Orbit: 597 x 624 km, 82.5° (Epoch: 02 September)

Date Brightness Start Highest point End Pass type
(mag) Time Alt. Az. Time Alt. Az. Time Alt. Az.
03 Sep 5.8 20:34:43 10° SW 20:38:12 24° W 20:41:42 10° NNW visible
04 Sep 6.2 07:05:13 10° NE 07:08:10 18° E 07:11:06 10° SE visible
04 Sep 6.8 20:51:29 10° WSW 20:52:50 11° W 20:54:11 10° WNW visible
05 Sep 4.8 07:18:48 10° NNE 07:22:47 37° E 07:26:46 10° SSE visible
08 Sep 6.4 06:27:05 10° NE 06:29:14 14° E 06:31:23 10° ESE visible
09 Sep 5.2 06:40:10 10° NNE 06:43:51 28° E 06:47:32 10° SE visible
10 Sep 3.6 06:54:14 10° N 06:58:28 61° E 07:02:42 10° SSE visible
11 Sep 3.0 07:08:51 10° NNW 07:13:05 60° W 07:17:18 10° S visible
12 Sep 3.9 07:24:02 10° NW 07:27:41 27° W 07:31:20 10° SSW visible
